[[{"header":{"parameterUnit":"m.s-1","parameterCategory":2,"la1":30.2991,"la2":30.254,"lo1":-89.0895,"lo2":-89.0444,"dy":0.0017,"dx":0.0017,"nx":28,"ny":28,"refTime":"2023-11-13T09:00:00:Z","depth":"0","parameterNumber":2,"parameterNumberName":"U-component_of_CURRENTS"},"data":[0,0,0,0,0,0,0,0,0,0,0,0,0,0,0,0,0,0,0,0,0,0,0,0,0,0,0,0,0,0,0,0,0,0,0,0,0,0,0,0,0,0,0,0,0,0,0,0,0,0,0,0,0,0,0,0,0,0,0.1747,0.1747,0,0.177,0.177,0.177,0.1774,0.1774,0.1774,0.1774,0.1761,0.176,0.176,0,0,0,0,0,0,0,0,0,0,0,0,0,0.1689,0.169,0.1747,0.1747,0.1748,0.177,0.177,0.177,0.1774,0.1774,0.1774,0.1774,0.1761,0.176,0.176,0,0,0,0,0,0,0,0,0,0,0,0,0,0.1711,0.169,0.1747,0.1754,0.1756,0.177,0.177,0.177,0.1774,0.1774,0.1774,0.1774,0.1761,0.176,0.176,0.1754,0,0,0.1758,0.1758,0,0,0,0,0,0,0,0,0.171,0.1712,0.1753,0.1754,0.1755,0.1772,0.1745,0.1764,0.1774,0.1764,0.1774,0.1774,0.1763,0.1762,0.1763,0.1754,0.1753,0.1758,0.1758,0.1757,0.1757,0,0,0,0,0,0,0,0.1708,0.1711,0.1753,0.1753,0.1755,0.1752,0.1754,0.1749,0.1759,0.1764,0.1765,0.1773,0.1763,0.1763,0.1762,0.1753,0.1758,0.1757,0.1757,0.1757,0.1776,0.1777,0,0,0,0,0,0,0.1712,0.171,0.1752,0.1754,0.1736,0.1753,0.1756,0.1764,0.176,0.1761,0.1773,0.1773,0.1764,0.1763,0.1762,0.1791,0.1757,0.1757,0.1756,0.1775,0.1776,0.1777,0,0,0,0,0,0,0.1711,0.1716,0.1751,0.1735,0.1739,0.1754,0.1763,0.1764,0.177,0.1768,0.1767,0.1778,0.1764,0.1763,0.1768,0.1789,0.1756,0.1756,0.1774,0.1775,0.1776,0.1825,0,0,0,0,0,0,0.1709,0.1715,0.172,0.1735,0.1741,0.1768,0.1763,0.1765,0.1775,0.1776,0.1771,0.177,0.1764,0.1769,0.1767,0.1787,0.1755,0.1773,0.1774,0.1776,0.1822,0.1828,0.1833,0,0,0,0,0,0.1707,0.1715,0.172,0.1725,0.1748,0.1769,0.1771,0.1779,0.1776,0.1783,0.1781,0.177,0.1778,0.1769,0.1767,0.1787,0.1772,0.1774,0.1776,0.182,0.1827,0.1832,0,0,0,0,0,0,0.1687,0.1717,0.1722,0.1737,0.1756,0.1771,0.1779,0.1782,0.1786,0.1785,0.1777,0.1776,0.1789,0.178,0.177,0.1798,0.1775,0.1776,0.1809,0.1815,0.182,0.1817,0.1755,0,0,0,0,0,0.1687,0.1703,0.1728,0.174,0.1751,0.1764,0.1773,0.178,0.1788,0.179,0.1788,0.1788,0.1795,0.1798,0.1797,0.1809,0.1815,0.1822,0.1828,0.1832,0.1828,0.1862,0.187,0.1783,0.1783,0.1783,0,0,0.1681,0.1701,0.1708,0.1737,0.175,0.177,0.1769,0.1787,0.1802,0.1787,0.1801,0.1802,0.1801,0.1819,0.1824,0.1814,0.1863,0.1834,0.1838,0.1832,0.1865,0.1873,0.1881,0.1785,0.1784,0.1784,0,0,0.1681,0.1697,0.1712,0.1733,0.1763,0.1774,0.1781,0.1801,0.181,0.1824,0.1823,0.1836,0.1838,0.185,0.1854,0.1884,0.1887,0.1889,0.1914,0.1948,0.1956,0.1962,0.1997,0.2006,0.1895,0.1895,0.1895,0,0.1669,0.1696,0.1719,0.1743,0.1761,0.1778,0.1798,0.1811,0.1829,0.1841,0.1833,0.1857,0.1853,0.1887,0.19,0.1896,0.1917,0.1892,0.1956,0.1962,0.1968,0.2001,0.2011,0.1897,0.1897,0.1897,0.1897,0,0.1686,0.1708,0.172,0.1758,0.178,0.1799,0.1829,0.1845,0.1854,0.1869,0.1898,0.1901,0.1918,0.1925,0.1919,0.1966,0.1969,0.1957,0.1941,0.198,0.2013,0.2022,0.1901,0.19,0.1899,0.1899,0,0,0.1653,0.1718,0.1722,0.1744,0.179,0.1808,0.1841,0.1877,0.1902,0.1917,0.195,0.1965,0.1972,0.1977,0.1983,0.2008,0.2071,0.2004,0.2004,0.204,0.2156,0.2203,0.2217,0.2077,0.2079,0.208,0.2168,0,0.1655,0.1702,0.1735,0.1773,0.1798,0.1832,0.1863,0.1899,0.1926,0.1963,0.198,0.2011,0.1993,0.2012,0.2036,0.2063,0.2095,0.2048,0.2111,0.2112,0.2151,0.2229,0.2226,0.2308,0.2177,0.2178,0.2179,0,0.1656,0.1691,0.173,0.1789,0.1804,0.1827,0.1884,0.1916,0.1975,0.2,0.2038,0.2057,0.2104,0.2078,0.2147,0.2123,0.2141,0.2155,0.2159,0.2188,0.2177,0.2245,0.2329,0.2314,0.2193,0.2192,0.2191,0,0.1621,0.1683,0.1713,0.1734,0.1803,0.1825,0.186,0.1922,0.1958,0.2031,0.2066,0.212,0.2156,0.2187,0.2225,0.2194,0.2303,0.2261,0.2319,0.2322,0.2323,0.2324,0.2398,0.2306,0.2306,0.2306,0.2305,0,0.1609,0.1629,0.1699,0.1716,0.1751,0.1809,0.1852,0.1899,0.1972,0.2028,0.2083,0.2145,0.2186,0.2252,0.2264,0.2344,0.2341,0.2345,0.2358,0.2342,0.2344,0.2331,0.2311,0.2309,0.2308,0.2308,0.2307,0,0.1558,0.1606,0.1641,0.1714,0.1733,0.1758,0.1836,0.1873,0.1954,0.2031,0.206,0.2177,0.2287,0.2333,0.2407,0.241,0.243,0.2486,0.2471,0.2482,0.2507,0.2491,0.2471,0.2353,0.2563,0.2565,0.2567,0,0.1534,0.155,0.1621,0.1642,0.1671,0.1718,0.1752,0.1843,0.1892,0.2058,0.2094,0.2239,0.2343,0.2491,0.2552,0.2621,0.251,0.2627,0.2558,0.2537,0.2528,0.2404,0.2292,0.2579,0.2581,0.2582,0.2583,0,0.1486,0.1512,0.1546,0.159,0.1625,0.1663,0.1725,0.1761,0.1888,0.1973,0.2123,0.2233,0.244,0.2553,0.2668,0.2692,0.2549,0.2656,0.2636,0.2563,0.2429,0.2312,0.2489,0.2594,0.2593,0.2592,0.2592,0.2591,0.1439,0.145,0.1499,0.1531,0.157,0.1602,0.1612,0.1699,0.178,0.1907,0.2074,0.2233,0.2495,0.2685,0.2696,0.2766,0.2646,0.2714,0.2703,0.2581,0.2449,0.2663,0.2781,0.2781,0.2781,0.2781,0.2781,0,0.1378,0.1406,0.1439,0.1475,0.1484,0.1531,0.1586,0.1594,0.1664,0.1855,0.1986,0.2305,0.2491,0.2669,0.2876,0.2831,0.2637,0.2768,0.2586,0.2467,0.2692,0.2677,0.2775,0.2775,0.2775,0.2775,0.2775,0.2775,0.135,0.1357,0.138,0.1377,0.1401,0.1383,0.1397,0.1436,0.1551,0.1748,0.1954,0.2134,0.2553,0.2957,0.3033,0.2941,0.2652,0.2626,0.249,0.2695,0.2687,0.2679,0.2661,0.2754,0.2754,0.2163,0.2159,0.2156]},{"header":{"parameterUnit":"m.s-1","parameterCategory":2,"la1":30.2991,"la2":30.254,"lo1":-89.0895,"lo2":-89.0444,"dy":0.0017,"dx":0.0017,"nx":28,"ny":28,"refTime":"2023-11-13T09:00:00:Z","depth":"0","parameterNumber":3,"parameterNumberName":"V-component_of_CURRENTS"},"data":[0,0,0,0,0,0,0,0,0,0,0,0,0,0,0,0,0,0,0,0,0,0,0,0,0,0,0,0,0,0,0,0,0,0,0,0,0,0,0,0,0,0,0,0,0,0,0,0,0,0,0,0,0,0,0,0,0,0,-0.0484,-0.0485,0,-0.0543,-0.0543,-0.0544,-0.0577,-0.0577,-0.0577,-0.0578,-0.0649,-0.065,-0.0652,0,0,0,0,0,0,0,0,0,0,0,0,0,-0.0433,-0.0434,-0.0484,-0.0485,-0.0485,-0.0543,-0.0543,-0.0544,-0.0577,-0.0577,-0.0577,-0.0578,-0.0648,-0.065,-0.0652,0,0,0,0,0,0,0,0,0,0,0,0,0,-0.047,-0.0434,-0.0484,-0.0509,-0.0512,-0.0542,-0.0543,-0.0544,-0.0577,-0.0577,-0.0577,-0.0578,-0.0647,-0.065,-0.0653,-0.0665,0,0,-0.0661,-0.0662,0,0,0,0,0,0,0,0,-0.0468,-0.0471,-0.0505,-0.0507,-0.0511,-0.0553,-0.0552,-0.0585,-0.0577,-0.0552,-0.0578,-0.0578,-0.0618,-0.0623,-0.0633,-0.0668,-0.0671,-0.0661,-0.0662,-0.0664,-0.0664,0,0,0,0,0,0,0,-0.0465,-0.0469,-0.0507,-0.0505,-0.0509,-0.0529,-0.0534,-0.0558,-0.0583,-0.0554,-0.0557,-0.0564,-0.062,-0.063,-0.0635,-0.0672,-0.0661,-0.0663,-0.0665,-0.0666,-0.0721,-0.0721,0,0,0,0,0,0,-0.0456,-0.0467,-0.0505,-0.0509,-0.0489,-0.0529,-0.0535,-0.0539,-0.0583,-0.0589,-0.0564,-0.0565,-0.0626,-0.0632,-0.0637,-0.0649,-0.0664,-0.0666,-0.0668,-0.0721,-0.0721,-0.0721,0,0,0,0,0,0,-0.0455,-0.0459,-0.0503,-0.0489,-0.0496,-0.053,-0.0534,-0.054,-0.0552,-0.059,-0.0597,-0.0569,-0.0626,-0.0634,-0.0659,-0.0652,-0.0667,-0.067,-0.0722,-0.0721,-0.0721,-0.0675,0,0,0,0,0,0,-0.0453,-0.0458,-0.0457,-0.0489,-0.0497,-0.0517,-0.0534,-0.0541,-0.0556,-0.0559,-0.0597,-0.0604,-0.0627,-0.0655,-0.0661,-0.0656,-0.0672,-0.0722,-0.0722,-0.0721,-0.0676,-0.0673,-0.067,0,0,0,0,0,-0.0451,-0.0447,-0.0456,-0.0461,-0.0494,-0.0517,-0.0523,-0.0548,-0.0556,-0.0559,-0.0586,-0.0603,-0.0658,-0.0657,-0.0665,-0.066,-0.0722,-0.0722,-0.0721,-0.0678,-0.0674,-0.067,0,0,0,0,0,0,-0.0423,-0.0451,-0.0462,-0.0466,-0.0489,-0.0523,-0.0528,-0.0545,-0.0569,-0.057,-0.0605,-0.0613,-0.0632,-0.0654,-0.0651,-0.0675,-0.0691,-0.0693,-0.0656,-0.0652,-0.0649,-0.0632,-0.0674,0,0,0,0,0,-0.0416,-0.042,-0.0452,-0.0454,-0.0464,-0.0495,-0.0507,-0.0523,-0.0549,-0.056,-0.0587,-0.0614,-0.0637,-0.065,-0.0675,-0.0689,-0.0711,-0.0691,-0.0688,-0.0685,-0.0677,-0.0707,-0.0706,-0.072,-0.072,-0.072,0,0,-0.0405,-0.0421,-0.0424,-0.0449,-0.0467,-0.0475,-0.0502,-0.0516,-0.0522,-0.0564,-0.0576,-0.0605,-0.0639,-0.0655,-0.0665,-0.0672,-0.0692,-0.0685,-0.0682,-0.0675,-0.0707,-0.0705,-0.0704,-0.072,-0.072,-0.072,0,0,-0.0386,-0.0401,-0.0399,-0.0415,-0.044,-0.0458,-0.046,-0.0492,-0.0505,-0.0524,-0.0553,-0.0576,-0.0613,-0.0634,-0.065,-0.0645,-0.0676,-0.0654,-0.0623,-0.0653,-0.0652,-0.0651,-0.0676,-0.0678,-0.065,-0.065,-0.065,0,-0.0371,-0.0374,-0.0402,-0.0404,-0.0412,-0.0447,-0.0444,-0.0463,-0.0498,-0.0505,-0.052,-0.0571,-0.0601,-0.0619,-0.0617,-0.0636,-0.0658,-0.0634,-0.0648,-0.0648,-0.0648,-0.0674,-0.0676,-0.0648,-0.0648,-0.0649,-0.0649,0,-0.0354,-0.0356,-0.0355,-0.0368,-0.0379,-0.0383,-0.0411,-0.0421,-0.044,-0.0461,-0.0484,-0.0526,-0.0555,-0.0568,-0.0592,-0.0605,-0.0622,-0.0641,-0.0655,-0.0643,-0.0671,-0.0675,-0.0645,-0.0646,-0.0646,-0.0647,0,0,-0.0318,-0.0339,-0.0337,-0.0334,-0.0359,-0.0363,-0.037,-0.0385,-0.0383,-0.0421,-0.0424,-0.0468,-0.0493,-0.0512,-0.0547,-0.0571,-0.0592,-0.0601,-0.0604,-0.062,-0.0656,-0.0659,-0.0663,-0.0616,-0.0616,-0.0616,-0.0675,0,-0.0295,-0.0288,-0.0306,-0.0292,-0.029,-0.0316,-0.0316,-0.0334,-0.0356,-0.0367,-0.0412,-0.043,-0.0472,-0.0483,-0.0514,-0.0571,-0.06,-0.0574,-0.0669,-0.0672,-0.0671,-0.0667,-0.0684,-0.0737,-0.0679,-0.0679,-0.068,0,-0.0272,-0.027,-0.0254,-0.0251,-0.0251,-0.0247,-0.0248,-0.0254,-0.0283,-0.03,-0.0331,-0.0368,-0.0407,-0.0444,-0.0534,-0.0517,-0.058,-0.0627,-0.0631,-0.065,-0.0681,-0.074,-0.0746,-0.0925,-0.0686,-0.0685,-0.0685,0,-0.0233,-0.023,-0.0213,-0.0214,-0.0219,-0.0211,-0.0213,-0.0232,-0.0224,-0.0258,-0.0255,-0.0319,-0.0338,-0.0427,-0.052,-0.0531,-0.0616,-0.0649,-0.0712,-0.0714,-0.0754,-0.0758,-0.0938,-0.0714,-0.0714,-0.0714,-0.0713,0,-0.0201,-0.0185,-0.0192,-0.0182,-0.0152,-0.0172,-0.0143,-0.0159,-0.0165,-0.0139,-0.0216,-0.0206,-0.0334,-0.0396,-0.0499,-0.0607,-0.0605,-0.0703,-0.0727,-0.0738,-0.074,-0.0918,-0.1014,-0.0716,-0.0715,-0.0715,-0.0714,0,-0.016,-0.0168,-0.0145,-0.014,-0.0134,-0.0113,-0.0092,-0.0069,-0.0089,-0.0058,-0.0062,-0.012,-0.0198,-0.0328,-0.0462,-0.0566,-0.0789,-0.072,-0.0718,-0.0741,-0.097,-0.1062,-0.1266,-0.1363,-0.0808,-0.0808,-0.0808,0,-0.0138,-0.0124,-0.0107,-0.0085,-0.0079,-0.0051,-0.0026,-0.0033,-0.0,0.0009,0.0036,-0.0028,-0.0051,-0.0257,-0.0455,-0.0641,-0.0806,-0.0786,-0.0813,-0.0983,-0.1105,-0.1185,-0.1257,-0.0855,-0.0856,-0.0857,-0.0857,0,-0.0092,-0.0088,-0.0067,-0.0026,0.0006,0.0047,0.0084,0.0123,0.0135,0.0169,0.0211,0.0194,-0.0004,-0.0192,-0.0457,-0.0602,-0.0939,-0.0802,-0.099,-0.1163,-0.1252,-0.1355,-0.0816,-0.0862,-0.0862,-0.0861,-0.0861,-0.0861,-0.0051,-0.0028,-0.0001,0.0042,0.0081,0.0143,0.0188,0.0246,0.0316,0.0382,0.0358,0.0361,0.0049,-0.0312,-0.0544,-0.0984,-0.0985,-0.1118,-0.1216,-0.1282,-0.138,-0.084,-0.0904,-0.0903,-0.0903,-0.0903,-0.0903,0,0.0003,0.0023,0.0065,0.0115,0.017,0.018,0.0265,0.0323,0.0425,0.0486,0.0528,0.0381,-0.0015,-0.0424,-0.1001,-0.1332,-0.1482,-0.1525,-0.1668,-0.1722,-0.1254,-0.1261,-0.139,-0.139,-0.139,-0.1389,-0.1389,-0.1389,0.0032,0.0079,0.0094,0.0183,0.0224,0.0303,0.0357,0.0451,0.0513,0.059,0.0596,0.0563,0.0245,-0.0801,-0.16,-0.1785,-0.2048,-0.209,-0.2222,-0.1927,-0.1897,-0.1869,-0.1899,-0.2159,-0.216,-0.2664,-0.2669,-0.2673]}],[{"header":{"parameterUnit":"m.s-1","parameterCategory":2,"la1":30.2991,"la2":30.254,"lo1":-89.0895,"lo2":-89.0444,"dy":0.0017,"dx":0.0017,"nx":28,"ny":28,"refTime":"2023-11-13T09:00:00:Z","depth":"2","parameterNumber":2,"parameterNumberName":"U-component_of_CURRENTS"},"data":[0,0,0,0,0,0,0,0,0,0,0,0,0,0,0,0,0,0,0,0,0,0,0,0,0,0,0,0,0,0,0,0,0,0,0,0,0,0,0,0,0,0,0,0,0,0,0,0,0,0,0,0,0,0,0,0,0,0,0.1795,0.1796,0,0.1818,0.1818,0.1818,0.1822,0.1822,0.1822,0.1822,0.181,0.181,0.181,0,0,0,0,0,0,0,0,0,0,0,0,0,0.1738,0.1739,0.1795,0.1796,0.1796,0.1818,0.1818,0.1818,0.1822,0.1822,0.1822,0.1822,0.1811,0.181,0.181,0,0,0,0,0,0,0,0,0,0,0,0,0,0.176,0.174,0.1795,0.1803,0.1804,0.1818,0.1818,0.1818,0.1822,0.1822,0.1822,0.1822,0.1811,0.181,0.181,0.1805,0,0,0.1808,0.1808,0,0,0,0,0,0,0,0,0.1759,0.1762,0.1801,0.1802,0.1803,0.182,0.1794,0.1813,0.1822,0.1812,0.1822,0.1822,0.1812,0.1811,0.1812,0.1805,0.1804,0.1808,0.1808,0.1808,0.1807,0,0,0,0,0,0,0,0.1757,0.1761,0.1802,0.1802,0.1803,0.18,0.1803,0.1798,0.1808,0.1813,0.1814,0.1821,0.1812,0.1813,0.1812,0.1804,0.1808,0.1808,0.1807,0.1807,0.1828,0.1829,0,0,0,0,0,0,0.1761,0.1759,0.1801,0.1802,0.1784,0.1801,0.1804,0.1812,0.1809,0.181,0.1821,0.1821,0.1813,0.1812,0.1811,0.1841,0.1808,0.1807,0.1807,0.1828,0.1829,0.183,0,0,0,0,0,0,0.176,0.1764,0.18,0.1783,0.1788,0.1802,0.1811,0.1813,0.1818,0.1816,0.1816,0.1825,0.1813,0.1812,0.1818,0.1839,0.1807,0.1806,0.1827,0.1828,0.1829,0.1877,0,0,0,0,0,0,0.1758,0.1764,0.1768,0.1784,0.1789,0.1817,0.1811,0.1813,0.1823,0.1824,0.182,0.1819,0.1813,0.1819,0.1818,0.1838,0.1806,0.1825,0.1827,0.1829,0.1874,0.188,0.1884,0,0,0,0,0,0.1756,0.1764,0.1768,0.1774,0.1796,0.1817,0.182,0.1828,0.1824,0.1831,0.183,0.1819,0.1829,0.1819,0.1817,0.1838,0.1825,0.1827,0.1829,0.1872,0.1879,0.1884,0,0,0,0,0,0,0.1737,0.1766,0.1771,0.1786,0.1804,0.1819,0.1827,0.183,0.1835,0.1833,0.1826,0.1825,0.1839,0.183,0.182,0.1849,0.1826,0.1828,0.186,0.1866,0.1871,0.1867,0.1806,0,0,0,0,0,0.1737,0.1752,0.1777,0.1788,0.18,0.1813,0.1821,0.1828,0.1836,0.1838,0.1837,0.1838,0.1845,0.1849,0.1849,0.1861,0.1867,0.1875,0.188,0.1884,0.188,0.1914,0.1922,0.1836,0.1836,0.1836,0,0,0.173,0.175,0.1757,0.1786,0.1799,0.1819,0.1817,0.1835,0.185,0.1836,0.185,0.1851,0.1851,0.187,0.1875,0.1866,0.1915,0.1887,0.189,0.1884,0.1917,0.1925,0.1933,0.1837,0.1837,0.1837,0,0,0.1731,0.1746,0.1762,0.1783,0.1811,0.1823,0.183,0.185,0.1859,0.1873,0.1872,0.1885,0.1889,0.1901,0.1905,0.1936,0.1938,0.1941,0.1966,0.2,0.2007,0.2014,0.2047,0.2056,0.1947,0.1947,0.1947,0,0.1719,0.1746,0.1768,0.1792,0.1811,0.1826,0.1847,0.186,0.1878,0.1891,0.1882,0.1907,0.1904,0.1938,0.1951,0.1948,0.1968,0.1944,0.2007,0.2013,0.2019,0.2052,0.2061,0.1949,0.1949,0.1949,0.1948,0,0.1736,0.1758,0.177,0.1808,0.183,0.1849,0.1878,0.1895,0.1903,0.1918,0.1948,0.1951,0.1969,0.1976,0.197,0.2017,0.202,0.2008,0.1992,0.2031,0.2063,0.2072,0.1953,0.1952,0.1951,0.1951,0,0,0.1703,0.1768,0.1772,0.1794,0.184,0.1858,0.1891,0.1927,0.1952,0.1967,0.2001,0.2016,0.2023,0.2028,0.2034,0.206,0.2121,0.2055,0.2055,0.2089,0.2205,0.2244,0.2257,0.2128,0.2129,0.213,0.2216,0,0.1706,0.1753,0.1786,0.1824,0.1849,0.1883,0.1914,0.195,0.1977,0.2014,0.2031,0.2062,0.2045,0.2063,0.2087,0.2114,0.2144,0.2099,0.216,0.2162,0.2193,0.2269,0.2074,0.2137,0.2224,0.2226,0.2227,0,0.1707,0.1742,0.1781,0.1841,0.1855,0.1878,0.1935,0.1968,0.2027,0.2052,0.2089,0.2108,0.2156,0.2129,0.2197,0.2174,0.219,0.2204,0.2208,0.223,0.2218,0.2109,0.215,0.2241,0.224,0.2239,0.2238,0,0.1672,0.1734,0.1765,0.1785,0.1854,0.1876,0.1912,0.1974,0.201,0.2082,0.2117,0.2171,0.2207,0.2237,0.2274,0.2243,0.2349,0.2309,0.2359,0.2362,0.2199,0.2186,0.2353,0.2353,0.2353,0.2352,0.2352,0,0.1659,0.168,0.175,0.1767,0.1802,0.1861,0.1904,0.1951,0.2024,0.2079,0.2134,0.2196,0.2236,0.2301,0.2312,0.2386,0.2386,0.2383,0.2396,0.2213,0.2201,0.2282,0.2273,0.2356,0.2355,0.2354,0.2354,0,0.1609,0.1657,0.1692,0.1765,0.1784,0.1809,0.1887,0.1924,0.2006,0.2082,0.2111,0.2227,0.2333,0.2378,0.245,0.2449,0.2502,0.252,0.2313,0.2302,0.2476,0.2468,0.2583,0.2585,0.2587,0.2589,0.259,0,0.1584,0.16,0.1672,0.1692,0.1721,0.1768,0.1802,0.1894,0.1943,0.2108,0.2143,0.2285,0.2381,0.2522,0.2547,0.2601,0.259,0.2448,0.2354,0.2504,0.2504,0.2493,0.2483,0.215,0.2148,0.2146,0.2144,0,0.1536,0.1562,0.1595,0.1639,0.1674,0.1713,0.1775,0.1811,0.1938,0.202,0.2168,0.2269,0.2437,0.2439,0.2529,0.252,0.2426,0.2417,0.2625,0.2144,0.2109,0.2106,0.2106,0.2127,0.2129,0.213,0.2131,0.2132,0.1489,0.1499,0.1548,0.158,0.1619,0.1651,0.1662,0.175,0.1829,0.1945,0.2097,0.2192,0.2276,0.2342,0.2312,0.2287,0.244,0.2307,0.2306,0.2309,0.2266,0.2239,0.2273,0.2275,0.2277,0.2279,0.2281,0,0.1431,0.1455,0.1488,0.1523,0.1537,0.1579,0.1635,0.1654,0.1723,0.186,0.1968,0.191,0.1948,0.2022,0.1979,0.2028,0.1929,0.1933,0.1762,0.1785,0.1803,0.1725,0.1593,0.159,0.1588,0.1585,0,0,0.1404,0.1412,0.1434,0.1434,0.1454,0.1451,0.1465,0.1518,0.16,0.1668,0.1706,0.1858,0.1987,0.1749,0.175,0.1664,0.1693,0.1602,0.2164,0.1986,0.2,0.2047,0.196,0,0,0,0,0]},{"header":{"parameterUnit":"m.s-1","parameterCategory":2,"la1":30.2991,"la2":30.254,"lo1":-89.0895,"lo2":-89.0444,"dy":0.0017,"dx":0.0017,"nx":28,"ny":28,"refTime":"2023-11-13T09:00:00:Z","depth":"2","parameterNumber":3,"parameterNumberName":"V-component_of_CURRENTS"},"data":[0,0,0,0,0,0,0,0,0,0,0,0,0,0,0,0,0,0,0,0,0,0,0,0,0,0,0,0,0,0,0,0,0,0,0,0,0,0,0,0,0,0,0,0,0,0,0,0,0,0,0,0,0,0,0,0,0,0,-0.0419,-0.042,0,-0.0476,-0.0477,-0.0477,-0.0511,-0.0511,-0.0511,-0.0512,-0.0583,-0.0584,-0.0586,0,0,0,0,0,0,0,0,0,0,0,0,0,-0.0371,-0.0372,-0.0419,-0.042,-0.0421,-0.0476,-0.0477,-0.0477,-0.0511,-0.0511,-0.0511,-0.0512,-0.0582,-0.0584,-0.0586,0,0,0,0,0,0,0,0,0,0,0,0,0,-0.0406,-0.0372,-0.0419,-0.0444,-0.0447,-0.0476,-0.0477,-0.0478,-0.0511,-0.0511,-0.0512,-0.0512,-0.0581,-0.0584,-0.0586,-0.0597,0,0,-0.0594,-0.0595,0,0,0,0,0,0,0,0,-0.0404,-0.0408,-0.044,-0.0443,-0.0446,-0.0487,-0.0486,-0.0518,-0.0511,-0.0486,-0.0512,-0.0512,-0.0552,-0.0557,-0.0566,-0.06,-0.0603,-0.0595,-0.0596,-0.0597,-0.0598,0,0,0,0,0,0,0,-0.0401,-0.0406,-0.0441,-0.0441,-0.0444,-0.0464,-0.0469,-0.0492,-0.0517,-0.0489,-0.0491,-0.0498,-0.0554,-0.0564,-0.0568,-0.0604,-0.0594,-0.0597,-0.0598,-0.0599,-0.0654,-0.0654,0,0,0,0,0,0,-0.0393,-0.0403,-0.044,-0.0443,-0.0426,-0.0464,-0.047,-0.0473,-0.0517,-0.0523,-0.0498,-0.0499,-0.0559,-0.0565,-0.0571,-0.0583,-0.0597,-0.06,-0.0601,-0.0654,-0.0654,-0.0654,0,0,0,0,0,0,-0.0392,-0.0396,-0.0437,-0.0425,-0.0432,-0.0464,-0.0468,-0.0474,-0.0487,-0.0523,-0.053,-0.0505,-0.056,-0.0567,-0.0592,-0.0586,-0.0601,-0.0603,-0.0654,-0.0654,-0.0654,-0.0609,0,0,0,0,0,0,-0.039,-0.0395,-0.0394,-0.0424,-0.0432,-0.0452,-0.0468,-0.0475,-0.0491,-0.0494,-0.0532,-0.0538,-0.0561,-0.0588,-0.0595,-0.059,-0.0605,-0.0654,-0.0654,-0.0654,-0.0611,-0.0607,-0.0605,0,0,0,0,0,-0.0388,-0.0384,-0.0393,-0.0398,-0.043,-0.0452,-0.0457,-0.0482,-0.0491,-0.0494,-0.052,-0.0537,-0.0592,-0.059,-0.0598,-0.0594,-0.0654,-0.0654,-0.0654,-0.0612,-0.0608,-0.0605,0,0,0,0,0,0,-0.0361,-0.0388,-0.0399,-0.0403,-0.0425,-0.0457,-0.0462,-0.048,-0.0503,-0.0505,-0.0539,-0.0548,-0.0567,-0.0588,-0.0585,-0.0609,-0.0625,-0.0626,-0.059,-0.0587,-0.0584,-0.0567,-0.0607,0,0,0,0,0,-0.0355,-0.0359,-0.0389,-0.0392,-0.0401,-0.0431,-0.0443,-0.0459,-0.0485,-0.0495,-0.0522,-0.0548,-0.0572,-0.0585,-0.0608,-0.0623,-0.0644,-0.0625,-0.0622,-0.0619,-0.0611,-0.0641,-0.0639,-0.0653,-0.0653,-0.0653,0,0,-0.0345,-0.036,-0.0363,-0.0387,-0.0404,-0.0411,-0.0439,-0.0453,-0.0458,-0.0499,-0.0512,-0.054,-0.0574,-0.0589,-0.0599,-0.0606,-0.0626,-0.0618,-0.0616,-0.0609,-0.064,-0.0639,-0.0638,-0.0653,-0.0653,-0.0653,0,0,-0.0327,-0.0341,-0.0339,-0.0354,-0.0379,-0.0396,-0.0399,-0.043,-0.0442,-0.0461,-0.049,-0.0513,-0.0549,-0.0569,-0.0585,-0.058,-0.061,-0.0589,-0.056,-0.0588,-0.0587,-0.0587,-0.0611,-0.0613,-0.0586,-0.0586,-0.0586,0,-0.0312,-0.0316,-0.0342,-0.0344,-0.0351,-0.0386,-0.0383,-0.0401,-0.0435,-0.0442,-0.0458,-0.0508,-0.0537,-0.0554,-0.0553,-0.0571,-0.0593,-0.0569,-0.0584,-0.0583,-0.0583,-0.0609,-0.0611,-0.0584,-0.0584,-0.0584,-0.0584,0,-0.0296,-0.0298,-0.0297,-0.0309,-0.0319,-0.0323,-0.0349,-0.0359,-0.0379,-0.0399,-0.0422,-0.0464,-0.0492,-0.0506,-0.0529,-0.0542,-0.0559,-0.0577,-0.059,-0.0579,-0.0607,-0.061,-0.058,-0.0581,-0.0582,-0.0582,0,0,-0.0262,-0.0281,-0.028,-0.0276,-0.03,-0.0303,-0.0309,-0.0323,-0.0321,-0.0359,-0.0362,-0.0406,-0.0431,-0.045,-0.0484,-0.0508,-0.053,-0.0538,-0.0541,-0.0557,-0.0592,-0.0597,-0.0601,-0.0553,-0.0553,-0.0554,-0.0611,0,-0.024,-0.0232,-0.0248,-0.0234,-0.0231,-0.0256,-0.0256,-0.0273,-0.0294,-0.0305,-0.035,-0.0368,-0.041,-0.0422,-0.0453,-0.0509,-0.0537,-0.0512,-0.0605,-0.0607,-0.0608,-0.0605,-0.056,-0.0607,-0.0615,-0.0615,-0.0616,0,-0.0217,-0.0214,-0.0198,-0.0193,-0.0193,-0.0189,-0.0189,-0.0194,-0.0221,-0.0239,-0.027,-0.0306,-0.0346,-0.0383,-0.0472,-0.0455,-0.0518,-0.0564,-0.0568,-0.0588,-0.0618,-0.062,-0.0614,-0.0622,-0.0622,-0.0621,-0.0621,0,-0.0181,-0.0176,-0.0158,-0.0159,-0.0161,-0.0154,-0.0155,-0.0173,-0.0165,-0.0198,-0.0195,-0.0258,-0.0278,-0.0366,-0.0458,-0.047,-0.0553,-0.0585,-0.0649,-0.065,-0.0638,-0.0637,-0.065,-0.0649,-0.0649,-0.0649,-0.0649,0,-0.0149,-0.0133,-0.0138,-0.0128,-0.0098,-0.0116,-0.0088,-0.0103,-0.0108,-0.0082,-0.0158,-0.0148,-0.0275,-0.0335,-0.0438,-0.0545,-0.0542,-0.064,-0.0664,-0.0621,-0.0618,-0.0652,-0.0651,-0.0651,-0.0651,-0.065,-0.065,0,-0.0111,-0.0118,-0.0094,-0.0088,-0.0081,-0.006,-0.0039,-0.0016,-0.0035,-0.0004,-0.0008,-0.0064,-0.0142,-0.0269,-0.0402,-0.0505,-0.0616,-0.0657,-0.0594,-0.0609,-0.0703,-0.07,-0.0744,-0.0745,-0.0745,-0.0746,-0.0746,0,-0.009,-0.0076,-0.0057,-0.0035,-0.0029,-0.0002,0.0024,0.0018,0.0051,0.0061,0.0089,0.0025,0.0004,-0.02,-0.0383,-0.0564,-0.0601,-0.066,-0.0679,-0.0693,-0.0713,-0.0708,-0.0704,-0.0648,-0.0647,-0.0647,-0.0646,0,-0.0045,-0.0042,-0.002,0.002,0.0052,0.0094,0.0131,0.017,0.0183,0.0219,0.026,0.0245,0.006,-0.01,-0.0358,-0.0482,-0.063,-0.0659,-0.0687,-0.0628,-0.0606,-0.0624,-0.0623,-0.0643,-0.0643,-0.0643,-0.0644,-0.0644,-0.0006,0.0017,0.0043,0.0086,0.0126,0.0187,0.0232,0.0296,0.0368,0.0435,0.0406,0.0399,0.0189,-0.0114,-0.0338,-0.0586,-0.0597,-0.0686,-0.0686,-0.0686,-0.0662,-0.0642,-0.0681,-0.0682,-0.0682,-0.0683,-0.0683,0,0.0052,0.0066,0.0107,0.0157,0.0218,0.0221,0.0307,0.037,0.0481,0.0535,0.0577,0.0424,0.0226,-0.0026,-0.0381,-0.0606,-0.062,-0.0677,-0.0643,-0.0644,-0.0646,-0.0619,-0.0628,-0.0628,-0.0628,-0.0629,0,0,0.0082,0.0131,0.0146,0.0236,0.0271,0.0357,0.041,0.0508,0.0569,0.0653,0.0659,0.0617,0.0307,0.0071,-0.0227,-0.0433,-0.0494,-0.0473,-0.0493,-0.0421,-0.042,-0.0626,-0.0583,0,0,0,0,0]}],[{"header":{"parameterUnit":"m.s-1","parameterCategory":2,"la1":30.2991,"la2":30.254,"lo1":-89.0895,"lo2":-89.0444,"dy":0.0017,"dx":0.0017,"nx":28,"ny":28,"refTime":"2023-11-13T09:00:00:Z","depth":"4","parameterNumber":2,"parameterNumberName":"U-component_of_CURRENTS"},"data":[0,0,0,0,0,0,0,0,0,0,0,0,0,0,0,0,0,0,0,0,0,0,0,0,0,0,0,0,0,0,0,0,0,0,0,0,0,0,0,0,0,0,0,0,0,0,0,0,0,0,0,0,0,0,0,0,0,0,0.1272,0.1273,0,0.1319,0.1319,0.132,0.1368,0.1368,0.1369,0.137,0.1432,0.1432,0.1433,0,0,0,0,0,0,0,0,0,0,0,0,0,0.1207,0.1208,0.1272,0.1273,0.1274,0.1319,0.1319,0.132,0.1368,0.1369,0.1369,0.137,0.1431,0.1432,0.1433,0,0,0,0,0,0,0,0,0,0,0,0,0,0.1241,0.1209,0.1272,0.1304,0.1308,0.1319,0.1319,0.132,0.1367,0.1369,0.137,0.1371,0.1431,0.1432,0.1434,0.1418,0,0,0.1438,0.1438,0,0,0,0,0,0,0,0,0.124,0.1244,0.1299,0.1302,0.1306,0.134,0.1319,0.1354,0.1367,0.1343,0.137,0.1371,0.1402,0.1406,0.141,0.1421,0.1423,0.1438,0.1439,0.1439,0.144,0,0,0,0,0,0,0,0.1237,0.1242,0.1289,0.1299,0.1304,0.131,0.1316,0.1326,0.1365,0.1345,0.1349,0.1356,0.1404,0.1408,0.1412,0.1424,0.1438,0.1439,0.144,0.144,0.1518,0.1519,0,0,0,0,0,0,0.1234,0.124,0.1288,0.1291,0.1277,0.1311,0.1318,0.1327,0.1364,0.1371,0.1355,0.1358,0.1406,0.141,0.1414,0.1485,0.1439,0.144,0.1441,0.1517,0.1518,0.152,0,0,0,0,0,0,0.1233,0.1238,0.1286,0.1267,0.1274,0.1311,0.132,0.1327,0.136,0.1372,0.138,0.1386,0.1407,0.1412,0.1451,0.1484,0.1441,0.1442,0.1515,0.1517,0.1519,0.157,0,0,0,0,0,0,0.123,0.1237,0.1254,0.1267,0.1275,0.1312,0.132,0.1327,0.1362,0.1367,0.14,0.1405,0.1408,0.1449,0.1452,0.1485,0.1443,0.1514,0.1516,0.1518,0.1567,0.1573,0.1579,0,0,0,0,0,0.1228,0.1243,0.1254,0.1261,0.1293,0.1313,0.1318,0.1346,0.1362,0.138,0.1406,0.1406,0.1467,0.1451,0.1455,0.1489,0.1512,0.1515,0.1518,0.1564,0.1572,0.1579,0,0,0,0,0,0,0.1225,0.1249,0.1262,0.1285,0.1307,0.1322,0.1345,0.136,0.1393,0.1408,0.1418,0.1425,0.1471,0.1471,0.1453,0.1518,0.1491,0.1494,0.1524,0.1532,0.1538,0.1532,0.1444,0,0,0,0,0,0.123,0.1252,0.1271,0.1294,0.1306,0.1329,0.1346,0.1365,0.139,0.1407,0.143,0.1456,0.1479,0.15,0.1515,0.1548,0.1549,0.1574,0.158,0.1585,0.1583,0.1613,0.1621,0.1529,0.1529,0.1529,0,0,0.1235,0.1253,0.1266,0.1295,0.1316,0.1336,0.1344,0.1377,0.1402,0.1407,0.1458,0.1477,0.1491,0.1532,0.1553,0.1542,0.1615,0.1589,0.1593,0.1588,0.1616,0.1625,0.1633,0.1531,0.153,0.153,0,0,0.1246,0.1273,0.1292,0.1312,0.1348,0.1361,0.1376,0.1407,0.1434,0.1474,0.1488,0.1526,0.1563,0.1581,0.1593,0.164,0.1643,0.1656,0.1689,0.1718,0.1725,0.1732,0.1755,0.1763,0.1663,0.1663,0.1664,0,0.1254,0.1278,0.1301,0.1323,0.1344,0.1374,0.1396,0.1423,0.1466,0.149,0.1501,0.1567,0.1582,0.1628,0.1651,0.1654,0.1672,0.166,0.1726,0.1732,0.1738,0.176,0.1768,0.1666,0.1666,0.1666,0.1665,0,0.1269,0.13,0.1315,0.1352,0.1377,0.1404,0.1437,0.1475,0.1511,0.1535,0.1597,0.1621,0.1662,0.1678,0.1682,0.1739,0.1739,0.1727,0.1705,0.1751,0.177,0.1778,0.167,0.1669,0.1668,0.1668,0,0,0.1255,0.1313,0.1322,0.1346,0.1396,0.1415,0.1465,0.151,0.155,0.1599,0.1648,0.1696,0.172,0.1734,0.1752,0.178,0.1843,0.1782,0.1782,0.1802,0.1916,0.1821,0.182,0.1852,0.1854,0.1855,0.1916,0,0.1262,0.1304,0.1334,0.1381,0.1403,0.145,0.1491,0.1541,0.1588,0.1643,0.1683,0.1736,0.1739,0.1775,0.1805,0.1834,0.1865,0.1827,0.187,0.1871,0.178,0.1826,0.186,0.1922,0.1923,0.1925,0.1926,0,0.126,0.1292,0.1336,0.1399,0.1415,0.1451,0.1526,0.1568,0.1646,0.1685,0.1746,0.1779,0.1843,0.1832,0.1906,0.1889,0.1909,0.1922,0.1924,0.182,0.179,0.1865,0.194,0.1938,0.1937,0.1936,0.1936,0,0.1228,0.1292,0.1328,0.135,0.1423,0.1463,0.1511,0.1588,0.1629,0.1723,0.1767,0.1836,0.1885,0.1923,0.1965,0.1949,0.2033,0.2007,0.1937,0.1931,0.1974,0.1966,0.205,0.205,0.205,0.205,0.205,0,0.1209,0.1242,0.1323,0.1344,0.1397,0.1458,0.1524,0.1582,0.1663,0.1714,0.1794,0.1842,0.1914,0.197,0.199,0.1993,0.2058,0.1947,0.1941,0.1996,0.199,0.1981,0.1972,0.2052,0.2052,0.2051,0.2051,0,0.1162,0.1216,0.1263,0.1351,0.1383,0.1425,0.1524,0.1566,0.1659,0.1729,0.1765,0.1866,0.1942,0.2,0.2064,0.2017,0.2032,0.2016,0.2086,0.2082,0.1902,0.1896,0.1931,0.1928,0.1925,0.1923,0.1922,0,0.1138,0.116,0.1257,0.129,0.1336,0.1409,0.1455,0.1553,0.1593,0.1732,0.1753,0.1866,0.1926,0.1936,0.2007,0.2035,0.2014,0.2002,0.193,0.19,0.1891,0.1888,0.1885,0.1918,0.1917,0.1917,0.1916,0,0.1091,0.1138,0.118,0.1246,0.1303,0.1354,0.143,0.1445,0.1558,0.1654,0.1702,0.1747,0.1828,0.1873,0.1914,0.193,0.1995,0.1976,0.198,0.1913,0.1885,0.1878,0.1877,0.1908,0.1909,0.191,0.191,0,0.106,0.1078,0.1142,0.119,0.1256,0.1283,0.133,0.1379,0.1427,0.1566,0.1583,0.1709,0.1807,0.1821,0.1863,0.1871,0.1836,0.1764,0.1778,0.1788,0.1715,0.1656,0.1609,0,0,0,0,0,0.1021,0.1037,0.108,0.1129,0.1189,0.123,0.1305,0.1351,0.1454,0.1448,0.1506,0.1576,0.1636,0.1702,0.1682,0.1814,0.1851,0.1784,0.1776,0.1862,0.1872,0.1799,0,0,0,0,0,0,0.0997,0.1038,0.1055,0.1067,0.109,0.1146,0.1191,0.1261,0.1257,0.1366,0.1405,0.1492,0.1573,0.1637,0.1657,0.1678,0.1643,0.186,0.1857,0.1857,0.1865,0.1873,0.1802,0,0,0,0,0]},{"header":{"parameterUnit":"m.s-1","parameterCategory":2,"la1":30.2991,"la2":30.254,"lo1":-89.0895,"lo2":-89.0444,"dy":0.0017,"dx":0.0017,"nx":28,"ny":28,"refTime":"2023-11-13T09:00:00:Z","depth":"4","parameterNumber":3,"parameterNumberName":"V-component_of_CURRENTS"},"data":[0,0,0,0,0,0,0,0,0,0,0,0,0,0,0,0,0,0,0,0,0,0,0,0,0,0,0,0,0,0,0,0,0,0,0,0,0,0,0,0,0,0,0,0,0,0,0,0,0,0,0,0,0,0,0,0,0,0,-0.0031,-0.0032,0,-0.0071,-0.0071,-0.0072,-0.0104,-0.0104,-0.0105,-0.0105,-0.0173,-0.0174,-0.0176,0,0,0,0,0,0,0,0,0,0,0,0,0,-0.0002,-0.0002,-0.0031,-0.0032,-0.0032,-0.0071,-0.0071,-0.0072,-0.0104,-0.0104,-0.0105,-0.0105,-0.0172,-0.0174,-0.0176,0,0,0,0,0,0,0,0,0,0,0,0,0,-0.0025,-0.0002,-0.0031,-0.0053,-0.0055,-0.0071,-0.0071,-0.0072,-0.0104,-0.0104,-0.0105,-0.0105,-0.0172,-0.0174,-0.0176,-0.018,0,0,-0.0183,-0.0184,0,0,0,0,0,0,0,0,-0.0024,-0.0026,-0.0049,-0.0051,-0.0054,-0.0083,-0.0086,-0.0109,-0.0104,-0.0085,-0.0105,-0.0106,-0.0145,-0.0149,-0.0155,-0.0183,-0.0186,-0.0183,-0.0185,-0.0185,-0.0186,0,0,0,0,0,0,0,-0.0022,-0.0025,-0.0047,-0.005,-0.0053,-0.0067,-0.0071,-0.009,-0.0112,-0.0087,-0.009,-0.0094,-0.0147,-0.0153,-0.0157,-0.0187,-0.0183,-0.0185,-0.0186,-0.0187,-0.0241,-0.0241,0,0,0,0,0,0,-0.0016,-0.0023,-0.0046,-0.0048,-0.004,-0.0067,-0.0071,-0.0073,-0.0112,-0.0118,-0.0093,-0.0095,-0.0149,-0.0155,-0.016,-0.0179,-0.0185,-0.0188,-0.0189,-0.0241,-0.0241,-0.0241,0,0,0,0,0,0,-0.0015,-0.0017,-0.0044,-0.0037,-0.0041,-0.0067,-0.0069,-0.0074,-0.0086,-0.0116,-0.0123,-0.0101,-0.015,-0.0157,-0.018,-0.0181,-0.0189,-0.0191,-0.024,-0.0241,-0.0241,-0.0209,0,0,0,0,0,0,-0.0014,-0.0017,-0.0016,-0.0036,-0.0041,-0.0053,-0.0069,-0.0074,-0.0087,-0.009,-0.0125,-0.0132,-0.0151,-0.0177,-0.0182,-0.0184,-0.0192,-0.024,-0.024,-0.0241,-0.0209,-0.0208,-0.0206,0,0,0,0,0,-0.0013,-0.0008,-0.0016,-0.0019,-0.0039,-0.0053,-0.0057,-0.0077,-0.0087,-0.009,-0.0115,-0.0131,-0.0182,-0.0179,-0.0185,-0.0188,-0.024,-0.024,-0.0241,-0.021,-0.0208,-0.0206,0,0,0,0,0,0,0.0006,-0.0012,-0.002,-0.0021,-0.0036,-0.0058,-0.0061,-0.0076,-0.0097,-0.0101,-0.0132,-0.014,-0.0161,-0.0178,-0.0174,-0.0204,-0.0214,-0.0215,-0.0188,-0.0186,-0.0185,-0.0168,-0.0194,0,0,0,0,0,0.0011,0.0009,-0.0011,-0.0011,-0.0017,-0.004,-0.0048,-0.0062,-0.0082,-0.0092,-0.0117,-0.0143,-0.0166,-0.0179,-0.0201,-0.0216,-0.0234,-0.0222,-0.022,-0.0219,-0.021,-0.0241,-0.024,-0.0241,-0.0241,-0.0241,0,0,0.0018,0.0009,0.0007,-0.0008,-0.002,-0.0022,-0.0046,-0.0056,-0.0059,-0.0096,-0.011,-0.0139,-0.0169,-0.0186,-0.0197,-0.0202,-0.0229,-0.0219,-0.0217,-0.021,-0.0241,-0.0241,-0.024,-0.0241,-0.0241,-0.0241,0,0,0.0035,0.0024,0.0028,0.0018,0.0002,-0.0011,-0.0013,-0.0037,-0.005,-0.0067,-0.0094,-0.0121,-0.0155,-0.0175,-0.019,-0.0191,-0.0219,-0.0202,-0.0179,-0.0209,-0.0209,-0.0209,-0.0232,-0.0235,-0.02,-0.02,-0.02,0,0.0046,0.0048,0.0027,0.003,0.0027,-0.0003,0.0003,-0.0013,-0.0042,-0.0049,-0.0067,-0.0118,-0.0148,-0.0166,-0.0169,-0.0186,-0.0206,-0.0184,-0.0205,-0.0206,-0.0207,-0.0231,-0.0234,-0.0199,-0.0199,-0.0199,-0.0199,0,0.0065,0.0066,0.0069,0.0063,0.0057,0.0056,0.0035,0.0024,0.0003,-0.0015,-0.0042,-0.0084,-0.0113,-0.013,-0.0152,-0.0171,-0.0185,-0.02,-0.0208,-0.0205,-0.023,-0.0234,-0.0196,-0.0197,-0.0197,-0.0198,0,0,0.009,0.0084,0.0085,0.0093,0.0075,0.0076,0.007,0.0059,0.006,0.002,0.0016,-0.0035,-0.0062,-0.0081,-0.0115,-0.0143,-0.0172,-0.0171,-0.0174,-0.0189,-0.0235,-0.0234,-0.0239,-0.0194,-0.0195,-0.0195,-0.0251,0,0.0112,0.0129,0.0118,0.0136,0.0144,0.0121,0.0123,0.0107,0.0085,0.0073,0.0024,0.0003,-0.0042,-0.0057,-0.0093,-0.015,-0.0181,-0.0155,-0.0241,-0.0243,-0.0238,-0.0242,-0.0197,-0.0254,-0.0255,-0.0256,-0.0256,0,0.0134,0.0144,0.0166,0.0179,0.0181,0.0186,0.0188,0.0184,0.0156,0.0137,0.0102,0.0064,0.0017,-0.0021,-0.0116,-0.0099,-0.0163,-0.021,-0.0214,-0.0224,-0.0249,-0.026,-0.0264,-0.0263,-0.0263,-0.0262,-0.0262,0,0.0165,0.018,0.0202,0.0204,0.021,0.0217,0.0219,0.0202,0.0207,0.0176,0.0174,0.011,0.0079,-0.0006,-0.011,-0.0115,-0.0212,-0.0234,-0.0291,-0.0292,-0.029,-0.029,-0.03,-0.03,-0.0299,-0.0299,-0.0299,0,0.0191,0.0211,0.0219,0.023,0.0262,0.0252,0.0277,0.0266,0.0259,0.0269,0.0209,0.02,0.0079,0.0009,-0.0089,-0.0199,-0.0201,-0.0284,-0.0306,-0.0276,-0.0273,-0.0293,-0.0292,-0.0301,-0.0301,-0.03,-0.03,0,0.0216,0.0221,0.0249,0.0266,0.0275,0.0294,0.0317,0.0333,0.0321,0.0332,0.0325,0.0262,0.017,0.0052,-0.0086,-0.0168,-0.0274,-0.0314,-0.0264,-0.0283,-0.0339,-0.0336,-0.038,-0.0381,-0.0381,-0.0382,-0.0382,0,0.0229,0.0245,0.0276,0.0296,0.0304,0.0333,0.0355,0.0358,0.0376,0.037,0.0378,0.0304,0.0245,0.0065,-0.0071,-0.025,-0.0282,-0.0338,-0.0348,-0.0331,-0.0348,-0.0343,-0.0339,-0.0382,-0.0382,-0.0383,-0.0383,0,0.0253,0.0262,0.0285,0.0324,0.0353,0.0391,0.0421,0.044,0.0445,0.0444,0.0422,0.0329,0.0227,0.0075,-0.0064,-0.0196,-0.0301,-0.0342,-0.0343,-0.0353,-0.0334,-0.0349,-0.0345,-0.0384,-0.0384,-0.0384,-0.0383,0,0.0269,0.0287,0.0313,0.0347,0.0388,0.0427,0.0445,0.0465,0.048,0.0473,0.0465,0.0356,0.029,0.0103,-0.0024,-0.0152,-0.0192,-0.0241,-0.0248,-0.0248,-0.0198,-0.0154,-0.0164,0,0,0,0,0,0.028,0.0298,0.0334,0.0368,0.041,0.0432,0.0479,0.0494,0.0506,0.0499,0.0482,0.0389,0.0206,0.013,0.0002,-0.0047,-0.0224,-0.0202,-0.0287,-0.0391,-0.0389,-0.0354,0,0,0,0,0,0,0.0287,0.0319,0.0332,0.0376,0.0403,0.045,0.048,0.0493,0.0488,0.0486,0.0396,0.0351,0.0176,0.028,-0.0002,-0.0041,-0.0114,-0.0286,-0.0289,-0.0391,-0.039,-0.0389,-0.0352,0,0,0,0,0]}]]